Home   Weather   Altötting   Past weeks
Flag for Germany

Past Weather in Altötting, Bavaria, Germany — Yesterday and Last 2 Weeks

Now
51 °F

Cool.


Feels Like: 51 °F
Forecast: 61 / 47 °F
Wind: 1 mph from Southwest

Location: Ranshofen

Current Time: Oct 21, 2019 at 10:51:14 pm

Latest Report: Oct 21, 2019 at 10:00 pm


Visibility: N/A

Pressure: 30.15 "Hg

Humidity: 96%

Dew Point: 50 °F

Location of AltöttingLocation

Past Weather in Altötting — Graph

°F

Altötting Temperature Yesterday

Maximum temperature yesterday: 62 °F (at 3:00 pm)
Minimum temperature yesterday: 49 °F (at 5:00 am)
Average temperature yesterday: 53 °F

High & Low Weather Summary for the Past Weeks

 TemperatureHumidityPressure
High70 °F (Oct 12, 5:00 pm)100% (Oct 14, 7:00 am)30.24 "Hg (Oct 14, 7:00 am)
Low38 °F (Oct 12, 7:00 am)45% (Oct 16, 4:00 pm)29.68 "Hg (Oct 15, 5:00 pm)
Average53 °F85%29.99 "Hg
* Reported Oct 6 9:00 pm — Oct 21 9:00 pm, Altötting. Weather by CustomWeather, © 2019

Note: Actual official high and low records may vary slightly from our data, if they occured in-between our weather recording intervals... More about our weather records

Advertising

Altötting Weather History for the Previous 24 Hours

Scroll right to see more
 ConditionsComfort  
Time TempWeatherWind HumidityBarometerVisibility
9:00 pm
Mon, Oct 21
52 °FCool.1 mph95%30.14 "HgN/A
8:00 pm54 °FCool.2 mph94%30.13 "HgN/A
7:00 pm56 °FCool.2 mph92%30.11 "HgN/A
6:00 pm59 °FCool.1 mph85%30.08 "HgN/A
5:00 pm64 °FMild.1 mph71%30.07 "HgN/A
4:00 pm64 °FMild.1 mph71%30.06 "HgN/A
3:00 pm61 °FCool.2 mph77%30.08 "HgN/A
2:00 pm60 °FCool.1 mph79%30.08 "HgN/A
1:00 pm58 °FCool.2 mph81%30.09 "HgN/A
12:00 pm56 °FCool.2 mph84%30.08 "HgN/A
11:00 am54 °FCool.2 mph88%30.06 "HgN/A
10:00 am53 °FCool.2 mph89%30.05 "HgN/A
9:00 am51 °FCool.1 mph93%30.03 "HgN/A
8:00 am52 °FCool.3 mph90%29.99 "HgN/A
7:00 am51 °FCool.3 mph92%29.96 "HgN/A
6:00 am51 °FCool.5 mph92%29.94 "HgN/A
5:00 am51 °FCool.5 mph93%29.93 "HgN/A
4:00 am51 °FCool.3 mph94%29.92 "HgN/A
3:00 am51 °FCool.5 mph94%29.90 "HgN/A
2:00 am51 °FCool.3 mph94%29.92 "HgN/A
1:00 am51 °FCool.5 mph94%29.90 "HgN/A
12:00 am51 °FCool.5 mph94%29.90 "HgN/A
11:00 pm
Sun, Oct 20
52 °FCool.3 mph92%29.89 "HgN/A
10:00 pm53 °FCool.5 mph90%29.87 "HgN/A
Weather by CustomWeather, © 2019

See weather overview